Location: Unspecified
(0.0000°N, 0.0000°E)
Time: 15:53:42
(UTC+00:00)

CZ-3C DEB - Pass Details

Date: 20 February 2026
Orbit: 521 x 35552 km, 20.3° (Epoch: 6 July)

Event Time Altitude Azimuth Distance (km) Brightness Sun altitude
Rises 23:52:48 0° 253° (WSW) 8,176 ? -77.8°
Reaches altitude 10° 23:56:44 10° 249° (WSW) 8,229 ? -78.2°
Maximum altitude 05:20:09 86° 131° (SE) 18,295 ? -13.2°
Drops below altitude 10° 06:36:40 10° 66° (ENE) 7,789 ? 5.6°
Sets 06:40:01 0° 67° (ENE) 7,881 ? 6.5°
